Find Starlink 35845

NORAD ID: 66366 Int'l Des: 2025-254 Owner: SPXS Country: US Constellation: starlink operational
LEOCIRCULAR

リアルタイム位置

3D地球を読み込み中...

Starlink 35845について

説明を読み込み中...

次回通過

Passes for default location (London). Set your location on the main map for personalized predictions.

高度履歴

Loading altitude history...

軌道要素

1 66366U 25254U 26106.56275259 .00009821 00000-0 34323-3 0 9999
2 66366 53.1607 56.5692 0002372 76.3685 283.7580 15.30204333 24770
Epoch: Apr 16, 2026 • Age: 21 hours

現在のステータス

高度 493.7 km
速度 7.62 km/s
衛星直下点 -49.23°S, 78.04°W
打ち上げ日 Nov 6, 2025
運用期間 0.4 years
タイプ internet

技術仕様

分類 Payload
質量 575.00 kg
乾燥質量 530.00 kg
総質量 575.00 kg
長さ 0.30 m
直径 4.10 m
スパン 29.00 m
形状 Box + pan
製造者 SPXS
バスタイプ Starlink V2MO
フェーズステータス In Orbit
所有者/国 SPXS/US

Most Searched